{"data":{"norad_id":55954,"epoch":"2026-05-25T04:32:30.329088Z","epoch_age_seconds":55881,"freshness":"FRESH","line1":"1 55954U 23037AS  26145.18923992  .00000188  00000+0  23541-4 0  9999","line2":"2 55954  70.0006  71.5145 0002881 269.7438  90.3391 14.98329392175934","mean_motion":14.98329392,"eccentricity":0.0002881,"inclination_deg":70.0006,"raan_deg":71.5145,"arg_perigee_deg":269.7438,"mean_anomaly_deg":90.3391,"bstar":2.3541e-5,"rev_number":17593,"period_min":96.107038124498,"perigee_km":570.05542002133,"apogee_km":574.06012224846,"semimajor_km":6950.1947711349,"source":"CELESTRAK","updated_at":"2026-05-25T13:38:17.918756Z"}}